User: anonymous   Login
Location: Unspecified
(0.0000°N, 0.0000°E)
Time: 08:55:33
(UTC+00:00)
Language:

ONEWEB-0086 - Orbit

View from above orbital plane
View from above orbital plane
View from above satellite
View from above satellite

Ground track
Ground track

The orbit is defined by the following mean orbital elements,

1 45456U          26145.64423811 +.00000000 +00000-0 +10274-2 0 00000
2 45456  87.8921  25.5455 0001608  56.7175 303.4107 13.11417563    03
Epoch (UTC): 25 May 2026 15:27:42
Eccentricity: 0.0001608
inclination: 87.8921°
perigee height: 1216 km
apogee height: 1219 km
right ascension of ascending node: 25.5455°
argument of perigee: 56.7175°
revolutions per day: 13.11417563
mean anomaly at epoch: 303.4107°

The dashed part of the orbit path shows where the satellite is in the earth's shadow,  

DLR